Theta_e
303 303 303 303 304 304 305 305 305 304 303 299 296 297 297 295 293 303 304 305 305 300 293 293 292 292 294 293 293 293 294 293 294 293 293 292 291 292 290 292 290 291 290 289 289 290 290 290 291 291 291 291 294 294 295 295 295 294 295 291 294 305 289 286 285 289 291 293 292 292 290 291 292 290 289 289 291 291 292 291 291 287 285 285 284 282 287
303 303 303 303 303 304 305 305 305 304 303 299 297 294 293 294 296 298 303 305 303 296 286 287 286 290 295 293 292 292 293 292 292 292 291 291 291 291 291 291 291 291 291 291 289 291 287 289 290 290 292 292 295 294 295 297 300 296 296 292 299 290 292 289 283 283 285 288 290 290 292 292 289 289 288 287 288 289 289 289 290 287 287 287 286 280 287
302 302 303 303 303 304 304 305 305 304 303 302 297 295 293 294 295 296 299 303 301 291 291 289 285 288 288 289 289 290 292 292 291 291 291 292 290 290 290 290 291 291 292 291 291 291 289 290 290 291 292 292 296 294 298 303 301 304 303 302 298 290 287 288 282 278 276 276 278 281 285 287 287 287 289 288 289 289 290 287 288 284 286 285 286 285 289
302 302 302 303 303 304 304 304 304 303 303 302 297 293 295 291 286 291 295 297 298 294 296 292 289 286 288 286 288 289 288 292 292 293 291 291 290 289 289 289 291 290 291 291 290 289 292 291 290 290 291 292 294 294 294 297 302 304 303 300 296 286 287 286 287 286 284 284 284 286 287 288 287 287 288 288 287 288 291 291 286 285 285 286 288 290 290
302 302 302 303 303 304 304 304 304 303 303 302 296 294 294 292 288 285 286 293 295 292 294 290 290 287 289 285 287 286 287 288 291 293 290 291 290 289 288 287 289 289 291 289 288 287 289 291 290 288 289 290 292 293 292 293 298 304 300 299 291 287 284 286 286 285 285 286 285 286 288 287 286 287 288 287 288 289 292 288 286 290 287 283 290 287 292
302 302 302 303 303 304 304 304 304 302 301 302 299 293 292 288 287 291 292 287 284 287 288 291 289 291 289 286 288 285 286 287 285 290 292 291 292 289 289 288 286 285 288 290 286 287 288 288 286 289 289 290 292 291 293 291 294 299 294 295 293 288 284 286 288 285 286 287 287 288 287 286 287 287 287 288 288 291 290 285 287 290 286 286 288 289 290
302 302 302 303 303 303 304 304 303 302 300 302 297 292 291 291 289 291 292 287 287 289 289 292 290 289 291 287 287 285 286 284 286 285 288 290 289 289 283 285 286 286 287 289 286 285 286 284 287 287 288 288 289 290 292 294 292 292 293 293 292 290 284 286 287 286 287 287 287 290 289 288 288 286 286 286 288 288 288 286 285 287 287 287 288 288 286
301 301 302 302 303 303 304 304 304 301 300 300 296 291 290 288 288 289 291 290 288 289 291 291 290 285 289 285 286 286 285 285 286 287 286 284 287 289 286 285 286 286 287 287 285 285 287 287 284 287 288 290 290 288 288 288 293 292 291 292 293 294 285 289 288 286 285 286 288 290 288 289 286 286 286 286 286 287 287 286 285 287 287 287 288 287 285
301 301 302 302 303 303 304 304 304 301 299 296 293 292 293 292 292 290 288 285 286 290 288 290 288 285 286 285 286 286 286 285 287 285 288 286 284 286 285 286 287 287 287 287 285 286 286 287 288 288 288 286 290 288 289 290 289 289 291 291 293 293 286 289 287 284 283 286 285 286 288 287 286 285 286 285 285 285 284 283 283 285 287 285 287 286 284
301 301 302 302 303 303 304 304 304 301 299 294 292 290 293 293 292 291 290 283 285 283 285 287 289 283 285 286 286 285 285 288 288 285 288 288 288 287 287 288 287 287 287 285 286 288 288 289 289 290 290 290 290 290 290 290 289 288 289 289 290 289 287 286 286 283 281 283 284 285 286 285 282 284 284 284 283 284 282 283 284 283 284 285 286 286 287
300 301 301 302 302 303 303 304 304 302 298 293 292 290 292 290 290 290 287 285 284 283 284 284 284 285 288 288 287 289 286 288 288 283 284 289 288 290 289 288 288 285 285 287 290 290 290 291 291 291 291 291 291 291 290 291 290 289 289 290 288 290 289 286 287 282 282 282 284 284 283 277 279 284 284 286 285 285 284 282 283 285 286 285 287 287 288
300 300 301 301 302 303 303 304 304 304 299 293 294 293 293 293 289 287 284 283 281 284 284 281 282 284 284 286 287 286 285 286 286 288 285 287 288 290 290 289 289 285 290 293 292 291 290 291 290 290 289 290 290 290 290 290 290 290 289 291 289 288 287 283 283 281 279 282 283 280 274 278 284 287 287 288 287 286 284 284 284 285 287 287 286 286 287
300 300 301 301 302 302 303 304 304 304 302 297 295 292 294 294 290 287 286 284 280 282 282 283 284 284 285 286 286 287 288 288 289 290 289 288 288 289 289 287 286 288 292 290 290 292 289 288 288 288 288 287 289 289 289 289 288 290 290 290 292 286 286 282 281 281 281 279 279 273 276 282 285 286 287 288 288 287 287 284 284 285 285 286 285 285 286
299 300 300 301 301 302 303 304 304 304 303 300 295 294 294 294 293 291 287 283 281 284 282 283 284 284 285 285 285 286 288 287 288 289 288 289 288 288 290 290 290 292 291 290 289 289 286 286 285 285 285 286 287 286 286 287 287 288 288 288 290 292 288 286 279 282 279 277 276 276 280 281 283 283 285 286 284 285 284 280 281 285 285 287 286 286 287
299 300 300 301 301 302 303 303 304 304 304 300 296 295 294 294 293 291 285 288 282 284 285 280 282 284 284 285 284 286 286 285 286 287 287 288 288 290 290 291 293 292 291 291 290 288 284 284 282 281 282 281 278 280 285 284 286 287 288 288 288 290 288 288 285 279 280 277 275 276 276 275 280 284 287 287 288 287 287 284 281 286 286 286 287 287 287
299 300 300 301 301 302 303 303 304 304 304 301 295 294 295 295 292 292 291 286 284 280 283 286 285 284 284 284 284 284 283 283 284 285 287 288 287 289 291 292 293 293 291 288 287 286 283 283 277 278 277 278 281 280 280 284 283 287 287 288 289 288 289 287 287 279 278 278 278 275 275 277 281 283 285 287 287 287 286 284 280 284 285 286 287 286 286
299 300 300 301 301 302 303 303 303 304 304 301 295 294 294 295 294 294 291 288 288 282 287 285 286 285 284 286 286 285 285 283 284 283 282 284 285 285 289 291 294 292 289 289 286 286 283 281 282 281 280 281 279 279 282 281 281 282 286 287 287 286 284 285 282 279 279 279 278 277 275 277 282 284 285 287 287 287 285 277 278 284 286 286 287 287 287
300 300 300 301 301 302 303 303 303 304 304 302 297 295 294 296 294 292 290 287 284 284 289 288 287 286 284 284 284 286 286 286 285 285 284 284 284 285 285 288 287 290 291 286 284 282 279 279 278 278 277 282 282 282 276 280 277 278 279 280 281 281 282 283 279 279 278 278 276 277 278 283 285 284 286 287 286 286 279 276 280 285 286 287 288 287 288
299 300 300 300 301 302 303 303 304 303 304 302 297 294 294 295 296 293 291 288 287 283 289 288 288 288 288 289 287 286 286 285 285 283 282 283 285 285 285 286 287 284 287 283 284 280 279 278 282 280 278 280 283 277 281 278 277 281 281 280 280 279 279 279 281 279 279 277 278 278 279 282 284 286 287 286 285 279 278 281 285 288 286 287 288 288 288
299 299 300 300 301 301 302 303 303 304 304 303 297 293 294 294 295 294 294 288 286 287 289 290 290 288 289 288 287 287 287 287 286 284 283 280 288 286 286 283 287 287 285 286 280 280 279 277 278 281 279 279 281 283 279 278 281 279 280 281 279 278 278 277 277 278 278 277 277 276 274 280 286 286 285 288 282 281 284 286 287 288 288 288 289 289 288
299 299 300 300 301 301 302 303 303 303 304 304 298 293 294 295 297 296 294 293 290 285 287 291 288 290 289 290 291 290 289 286 287 285 285 286 286 284 279 277 283 283 281 281 278 278 279 278 280 279 281 280 281 282 276 277 279 283 282 281 281 283 278 278 278 281 278 277 275 275 280 282 287 286 282 284 286 287 289 288 286 289 290 289 290 289 290
299 299 300 300 300 301 302 303 303 303 304 303 298 293 292 295 296 296 294 294 290 288 290 290 290 293 294 293 293 293 292 291 292 291 288 286 287 286 285 286 285 285 286 286 283 281 283 282 282 280 278 280 283 278 278 277 275 280 284 283 277 283 280 281 278 281 279 278 279 282 284 286 288 289 287 288 290 290 291 290 288 288 288 290 290 289 290
299 299 300 300 301 302 302 302 303 303 303 303 298 293 291 293 294 296 293 293 291 292 292 289 289 290 294 295 293 293 293 292 294 293 292 290 285 287 286 287 286 287 288 287 285 283 283 283 278 283 280 281 278 277 279 279 276 280 278 282 283 285 285 286 284 280 284 285 285 286 285 286 287 289 290 290 289 290 292 291 288 289 290 290 289 289 288
299 299 299 300 300 301 302 302 302 303 303 303 298 293 293 293 293 295 294 291 289 287 290 291 290 287 288 290 294 294 292 293 295 293 291 296 286 284 287 288 288 289 289 288 286 286 284 282 282 284 278 281 282 277 275 276 277 281 281 280 282 284 284 284 281 283 280 275 285 285 285 286 287 287 289 289 290 289 290 290 289 289 289 289 288 288 287
298 299 299 300 300 301 302 302 303 302 303 302 299 295 294 293 294 292 293 288 288 285 282 284 286 291 292 292 292 291 290 293 296 294 294 294 294 288 285 289 290 289 287 289 287 287 283 282 282 281 277 282 283 277 281 279 278 282 278 280 282 281 286 283 281 281 279 279 284 285 286 286 287 288 288 288 289 289 289 290 290 290 289 289 289 290 289
298 299 299 299 300 301 302 302 302 302 302 301 298 293 293 292 294 294 294 291 288 285 284 282 288 294 290 292 292 292 292 292 292 294 294 291 291 296 294 291 289 290 289 287 289 286 282 280 280 281 281 280 286 280 279 282 281 282 281 281 284 283 286 279 282 280 281 283 284 284 286 286 287 288 288 289 290 290 290 290 290 290 289 289 288 289 288
298 299 299 299 300 301 302 302 302 302 302 300 295 292 294 295 294 295 294 292 289 283 284 283 286 288 290 290 292 294 292 292 293 293 292 291 290 291 292 291 293 290 290 289 285 282 282 281 282 281 283 281 284 282 282 282 282 281 280 283 285 283 280 281 282 278 278 280 282 285 280 280 285 287 289 289 289 289 289 289 289 289 288 288 288 287 287
299 299 299 300 300 301 302 302 302 302 302 300 295 294 293 295 295 294 294 295 292 284 283 281 287 290 291 290 291 291 291 292 291 292 290 291 291 291 291 290 291 292 289 288 285 284 282 281 280 280 281 284 282 280 283 283 283 282 282 283 284 283 282 282 279 279 278 284 286 288 287 285 287 289 289 289 289 289 289 289 288 288 289 288 288 288 288
299 299 299 300 301 301 302 302 302 302 302 298 293 296 295 295 295 297 297 294 292 288 285 287 290 289 285 288 292 292 291 292 292 291 291 289 290 290 290 289 290 287 286 284 283 283 282 282 282 284 284 285 283 279 281 277 276 276 281 284 284 285 285 285 285 285 285 286 287 288 287 285 287 288 289 289 289 290 289 289 289 289 288 288 288 288 286
299 299 300 300 301 301 302 302 302 302 301 294 293 289 287 293 294 297 299 297 295 293 285 282 281 284 288 289 292 290 290 292 290 292 291 290 290 290 289 291 289 289 288 285 284 281 282 282 282 284 286 288 281 278 277 278 278 281 285 285 285 285 285 286 285 286 284 287 287 287 288 287 288 288 289 289 289 291 290 289 289 288 288 288 287 287 287
299 299 300 301 301 301 301 302 302 302 299 291 290 283 281 282 291 296 297 297 293 294 284 284 284 285 286 291 288 289 289 290 291 290 290 289 288 288 287 289 288 289 288 284 285 282 281 281 281 284 286 287 283 279 279 278 276 280 285 287 287 287 286 286 286 286 287 286 287 287 288 288 288 289 288 289 289 290 289 289 289 289 288 288 287 287 286
300 300 300 300 301 301 301 302 303 300 296 295 293 290 289 291 295 297 300 297 295 295 286 282 282 283 282 286 292 289 289 288 288 289 290 290 291 289 289 288 287 290 288 284 282 281 282 280 281 283 286 285 282 277 280 279 276 280 285 286 286 286 286 288 288 287 287 288 289 287 287 286 288 287 287 289 289 289 289 289 289 289 289 289 287 287 287
300 300 300 300 301 301 301 302 302 300 297 297 299 300 299 300 300 300 299 296 295 286 286 282 279 280 281 285 288 291 289 292 292 288 289 289 289 288 288 288 288 287 288 286 282 282 282 280 281 281 284 285 281 279 279 278 281 285 285 286 286 287 287 288 287 287 288 287 288 285 284 285 287 289 288 289 289 288 288 288 288 287 287 286 285 286 286
300 300 300 300 300 301 301 302 302 300 296 295 293 294 296 300 300 300 296 294 291 287 284 282 279 280 282 287 285 288 290 287 285 286 284 289 286 287 285 287 287 283 284 284 283 282 282 282 282 281 284 281 280 279 275 280 285 284 283 284 285 286 288 288 288 288 288 288 288 287 288 288 287 288 287 287 287 288 288 287 286 285 285 285 285 285 285
300 300 300 300 300 301 300 298 294 294 292 292 292 295 296 300 299 295 294 294 286 281 282 281 280 278 280 281 278 286 288 287 284 285 283 286 288 287 286 284 284 282 282 286 281 280 280 281 284 280 278 281 279 275 277 282 284 283 283 284 285 287 287 287 288 288 287 287 288 287 287 288 288 287 287 287 287 287 287 286 286 285 285 285 285 285 285
300 299 299 299 299 299 297 298 294 293 291 291 293 296 299 301 297 293 293 293 291 281 277 278 279 279 278 275 277 283 288 286 285 285 284 284 286 286 284 283 280 281 284 281 280 281 280 283 282 277 278 276 276 279 282 285 285 285 285 286 286 288 288 288 288 286 287 287 287 287 286 288 288 288 287 287 287 287 287 286 286 286 285 285 285 285 285
299 298 298 297 296 297 290 289 293 293 292 294 296 300 300 299 297 298 295 295 295 293 288 279 280 281 281 280 279 283 287 282 285 284 285 284 282 281 283 281 279 281 280 279 279 279 282 285 280 275 275 276 278 284 285 285 285 285 284 286 287 288 288 287 288 288 287 287 287 286 287 287 287 287 287 287 287 287 286 285 286 286 285 285 285 285 285
297 295 294 294 291 285 286 287 290 294 298 298 298 295 293 292 286 285 286 285 288 291 284 286 281 281 283 281 280 287 286 282 284 282 282 281 281 281 280 280 279 280 276 274 278 284 279 276 275 276 276 282 284 283 284 284 285 285 287 286 287 288 288 288 288 288 287 286 285 286 286 286 286 287 286 287 287 286 286 287 287 287 287 286 287 286 286
292 290 289 287 287 283 285 290 295 297 296 295 294 289 286 283 282 282 282 283 283 284 284 284 283 284 284 282 284 290 285 283 281 281 280 284 281 279 281 277 279 279 274 274 278 283 276 275 272 273 276 281 283 286 285 284 284 284 285 286 288 288 288 288 289 289 287 286 286 287 288 286 286 287 288 287 288 287 287 287 287 287 286 287 287 286 286
291 287 283 283 284 287 292 294 296 294 293 287 284 284 283 283 282 280 281 280 281 281 282 282 286 285 285 284 283 283 288 285 281 280 280 281 285 279 278 279 278 276 271 270 276 282 277 273 271 272 276 280 282 286 284 285 285 285 285 286 287 287 288 289 289 289 290 289 289 289 289 289 289 289 288 288 288 287 287 287 288 287 288 287 286 285 285
289 286 285 283 288 291 293 295 294 289 286 283 281 280 279 279 280 280 279 276 277 280 283 285 284 284 284 283 285 282 288 289 286 284 283 280 284 283 278 274 278 275 270 270 277 277 275 272 271 272 276 281 284 284 283 285 285 286 286 286 287 287 288 288 289 288 288 288 288 289 288 288 289 289 289 289 289 288 288 288 286 286 287 287 286 287 287
292 292 291 293 294 294 293 290 285 285 283 281 278 275 276 278 280 280 279 277 277 278 284 284 281 282 284 286 285 286 285 288 286 283 282 278 282 279 275 275 275 272 269 276 277 275 275 271 269 271 277 279 282 282 282 284 286 286 286 286 287 287 287 289 289 287 288 290 290 290 289 289 289 288 289 289 289 288 288 287 287 288 287 287 287 286 286
297 297 295 291 289 287 285 283 283 280 275 274 272 274 275 275 276 276 278 279 278 282 284 286 286 287 287 286 285 286 285 288 285 284 282 279 282 279 275 272 270 270 275 278 276 271 270 269 267 277 282 284 284 282 283 284 285 286 286 286 288 288 289 290 290 290 288 289 290 290 289 289 289 289 288 288 288 287 288 287 288 288 288 287 287 286 285
294 293 290 285 284 283 283 276 283 281 276 273 272 271 272 274 277 275 276 280 283 283 285 283 284 283 281 286 284 284 285 286 287 283 282 280 279 274 272 271 273 277 279 275 273 272 273 271 275 281 283 283 283 283 284 284 285 285 286 286 286 287 287 287 287 288 287 287 288 288 288 288 288 287 287 287 288 288 289 289 288 287 287 286 286 286 285
286 282 279 278 278 281 280 272 278 276 273 274 274 272 273 274 275 273 280 282 283 283 285 285 284 283 282 286 286 286 284 283 285 281 278 280 276 273 272 274 276 275 274 272 269 270 271 272 280 281 282 283 285 285 283 283 282 283 285 286 287 287 287 288 288 289 289 289 289 288 288 288 288 288 286 285 286 288 288 289 289 288 288 287 286 286 286
281 281 279 274 272 277 274 271 273 274 276 277 276 280 280 281 281 282 284 283 284 285 285 285 284 285 283 286 283 282 283 283 281 281 279 277 275 274 278 278 277 274 270 269 267 270 273 277 281 282 283 283 283 282 279 280 283 284 285 287 288 287 288 288 289 289 289 289 288 289 289 288 288 288 287 288 288 287 288 289 289 288 288 286 286 286 286
282 281 278 276 273 276 278 274 275 278 281 282 283 283 284 284 284 284 285 284 285 285 285 285 284 285 283 283 283 283 282 281 279 280 280 275 274 277 279 276 270 267 268 266 266 269 273 279 280 281 282 281 280 281 280 281 282 283 285 287 287 288 287 288 288 288 288 288 288 288 288 288 288 288 287 287 287 288 287 287 288 287 287 287 287 286 286
279 280 279 275 274 276 276 278 281 282 282 283 283 282 282 283 285 285 286 285 286 285 285 285 283 283 283 285 284 280 280 280 278 279 280 278 279 275 271 270 269 268 269 271 274 275 278 281 282 282 282 281 279 277 280 282 283 284 284 285 286 287 287 288 288 288 287 287 287 288 288 288 288 287 288 288 289 289 288 288 288 287 287 286 286 286 285
283 280 277 275 276 277 278 280 282 282 283 282 283 283 284 284 284 285 286 285 286 287 286 285 282 281 280 282 280 279 278 281 276 275 280 277 273 269 269 268 266 269 273 275 279 281 282 284 282 282 282 281 281 279 282 284 284 284 284 285 286 287 287 288 289 289 288 287 288 288 288 288 288 288 288 287 287 289 290 289 288 288 288 287 287 287 286
280 277 278 277 279 279 280 281 282 280 282 282 283 283 282 283 283 286 287 287 287 287 286 284 284 281 280 280 277 277 277 279 279 278 275 272 273 272 271 270 270 272 277 278 279 282 285 284 283 281 283 284 284 282 283 286 284 283 284 285 285 285 286 287 288 288 288 288 288 288 289 288 288 288 288 288 289 290 289 289 289 289 288 288 287 287 287
286 283 280 282 281 279 280 276 277 276 278 282 282 283 283 283 284 286 288 288 288 285 284 281 280 280 279 278 276 274 277 281 278 275 274 274 274 273 273 273 276 277 280 284 284 284 284 284 284 285 284 284 286 285 285 286 286 286 285 284 284 285 285 286 287 288 288 288 288 284 287 288 289 289 290 290 289 288 289 289 289 289 289 288 287 287 287
282 278 280 281 283 282 283 283 282 281 283 284 284 284 284 284 285 287 288 288 285 282 280 280 280 279 277 276 278 280 281 279 276 275 274 276 276 276 273 276 280 282 282 283 285 285 284 284 284 282 284 285 286 286 287 287 286 286 286 285 284 284 284 285 286 287 287 287 287 287 288 289 289 289 288 288 288 287 287 289 290 289 288 288 288 288 288
Wind_Speed
26 27 27 28 29 30 28 29 29 26 24 7 5 4 3 5 3 4 6 5 3 1 1 1 1 1 2 4 2 3 1 1 1 2 3 0 2 1 1 3 3 2 3 0 2 3 2 2 2 1 2 2 2 5 1 6 7 1 1 2 1 2 2 3 2 0 1 3 0 1 2 2 3 7 3 1 3 1 2 0 5 5 4 2 2 2 2
27 28 27 30 30 30 29 29 29 25 21 7 5 2 3 0 1 4 8 9 2 6 1 2 3 3 4 2 1 2 1 3 2 2 2 2 3 1 1 1 2 1 1 1 2 1 3 0 0 2 0 2 2 7 1 9 4 4 2 2 0 1 2 2 3 2 1 1 1 1 0 3 3 2 2 3 3 4 3 4 1 2 4 1 5 4 2
27 27 27 29 31 30 29 29 28 25 21 8 1 3 0 1 1 1 6 10 7 5 1 1 1 3 4 3 7 8 3 2 2 0 3 2 1 0 0 1 3 0 2 2 1 3 2 0 3 1 2 2 2 6 7 9 8 4 1 1 3 3 1 2 6 7 6 7 5 4 3 3 1 1 1 2 1 8 4 3 3 3 3 2 3 2 3
27 27 26 28 30 30 30 29 29 26 22 8 2 1 1 4 1 5 6 7 7 6 1 1 2 1 3 4 4 3 3 1 3 2 4 2 2 3 3 1 2 3 1 3 4 4 3 1 2 1 2 2 3 3 6 6 7 10 11 6 4 3 2 4 2 3 2 3 1 1 1 1 4 3 2 1 2 3 3 4 2 4 4 4 1 2 7
26 26 26 27 30 30 29 29 29 29 23 11 3 3 3 2 4 2 4 4 6 3 6 7 6 2 2 3 6 7 5 4 1 4 2 6 1 3 6 5 0 1 2 3 3 2 3 5 3 5 2 2 2 6 5 1 9 10 8 3 6 4 5 6 4 8 4 2 2 0 2 2 5 3 4 2 3 3 2 1 2 4 6 3 2 1 6
26 26 25 26 29 30 30 28 29 29 26 16 3 5 4 4 1 1 1 2 4 5 5 9 6 11 3 4 3 6 7 10 5 6 4 2 6 1 1 10 8 2 2 3 3 5 3 6 3 4 3 2 5 2 6 7 9 3 4 2 3 5 3 4 3 5 8 8 4 4 5 5 4 5 5 5 7 3 3 1 3 2 1 0 4 6 5
25 26 25 25 29 29 29 28 28 28 26 15 3 6 3 3 0 1 2 1 2 2 4 6 5 9 9 2 8 8 10 10 6 2 5 4 8 7 2 8 11 8 0 1 4 3 1 3 3 4 5 5 3 3 5 2 8 7 4 3 3 5 2 2 0 6 7 7 6 6 6 2 4 9 8 7 7 6 5 6 3 3 3 3 6 9 7
24 25 24 24 27 29 29 29 26 27 24 9 9 7 2 4 3 2 4 4 2 6 3 3 5 9 10 4 9 6 9 9 8 6 7 2 5 6 5 6 6 9 10 5 6 5 5 4 3 3 3 2 6 3 3 4 7 5 3 1 2 4 2 2 1 3 3 5 3 6 7 5 5 5 6 5 4 5 7 4 3 4 8 6 5 9 6
23 24 23 24 24 27 28 29 26 25 20 7 7 3 4 1 0 1 1 4 6 4 4 3 5 5 7 6 6 5 11 7 7 5 4 7 3 5 5 5 4 2 8 10 8 3 4 4 3 2 3 2 2 2 2 1 3 6 3 3 2 4 2 2 1 2 0 2 5 5 7 8 5 3 5 6 6 4 5 2 4 3 4 5 4 4 3
23 23 23 24 23 25 25 26 27 23 15 5 2 4 2 0 1 1 1 3 4 4 4 3 1 6 2 3 4 3 9 8 6 2 4 5 6 4 4 4 0 5 9 10 7 7 5 6 6 4 3 3 3 3 4 3 3 3 2 1 2 2 6 4 4 3 2 2 3 6 6 4 3 3 1 3 2 3 4 3 5 4 4 2 2 3 5
22 22 23 22 23 23 25 26 24 21 10 6 4 3 4 3 2 3 2 4 3 5 1 7 6 2 2 4 2 2 3 9 10 5 3 6 8 7 4 6 2 3 5 5 8 7 9 7 5 3 2 2 3 4 3 3 2 1 2 1 1 1 8 4 1 3 2 4 5 1 4 3 3 3 5 3 3 4 4 3 4 5 2 1 3 8 6
21 22 22 22 22 23 24 24 24 22 9 1 1 3 2 1 1 1 2 4 2 4 5 5 4 3 6 7 3 3 4 5 4 2 2 4 5 7 8 9 5 2 4 5 6 6 3 1 4 3 3 2 2 5 6 9 8 5 2 1 3 5 4 3 1 4 3 4 5 4 4 4 4 4 2 5 4 10 13 9 8 7 7 10 12 11 10
21 21 21 21 22 22 22 24 24 22 15 2 4 5 3 1 0 3 4 4 4 6 3 3 3 2 2 6 5 3 5 4 3 4 3 3 5 7 6 4 6 6 11 13 10 3 4 0 2 2 1 4 5 7 12 11 8 6 5 4 2 2 3 3 2 2 3 2 3 4 2 3 4 2 4 4 3 2 6 11 10 8 6 4 12 10 10
19 20 21 20 20 21 21 23 22 23 19 7 3 4 4 1 1 3 2 4 3 3 2 3 5 10 10 9 5 6 4 6 5 2 4 3 4 6 3 3 7 9 8 5 3 2 1 2 1 2 2 1 2 1 2 4 8 8 7 5 2 6 4 2 3 2 3 1 1 1 4 2 4 3 0 3 1 3 2 3 4 5 4 2 7 7 5
19 20 20 20 20 20 21 23 22 23 20 11 2 2 5 5 2 4 1 3 4 1 5 5 7 7 6 5 6 5 6 6 6 2 2 3 1 3 4 9 9 8 4 1 3 4 2 0 1 1 1 1 2 2 2 2 1 5 6 4 4 3 3 2 5 1 2 4 1 0 1 2 5 3 3 0 1 2 3 3 4 3 4 2 0 5 3
19 19 19 19 20 20 20 21 22 22 21 12 3 3 4 4 1 2 3 2 3 4 7 3 4 3 3 3 4 7 3 3 4 3 5 4 4 8 3 7 8 6 3 5 2 2 2 0 1 1 0 0 2 1 1 3 2 2 4 6 6 6 6 2 3 4 2 2 4 3 5 1 3 2 4 4 2 3 3 1 4 2 2 2 2 5 2
19 19 19 19 20 20 20 21 21 22 21 15 4 3 7 5 3 1 4 5 5 4 3 3 1 1 1 3 3 3 4 3 4 2 3 5 6 6 10 10 4 4 9 3 4 2 3 4 1 1 2 1 1 2 2 2 3 4 8 5 8 7 3 1 2 3 2 3 4 4 2 2 1 4 4 4 1 4 2 3 3 4 2 1 2 5 4
18 19 19 19 20 20 20 21 21 21 20 17 4 3 4 5 3 1 4 4 4 4 4 3 4 4 7 1 3 3 1 1 1 1 1 2 3 6 8 8 10 5 4 3 2 3 3 3 2 2 2 3 2 2 1 2 2 3 4 5 3 4 2 4 1 1 1 2 1 2 1 1 2 4 6 4 3 2 5 4 5 3 2 2 4 7 6
18 18 18 19 19 20 20 21 21 21 20 19 5 1 4 6 6 3 6 4 4 4 4 1 1 3 1 1 1 0 1 1 2 1 3 2 3 4 3 3 2 5 7 2 3 3 2 2 0 2 1 3 2 2 2 2 3 2 3 1 2 3 1 1 1 2 1 0 1 1 1 0 3 4 5 3 3 5 3 4 1 4 5 4 4 8 6
17 17 18 19 18 19 20 20 21 21 20 19 7 3 2 4 5 6 3 5 1 4 2 3 3 5 1 4 5 5 2 2 2 2 3 3 5 4 1 2 1 3 3 3 3 1 1 2 1 1 2 2 3 1 3 3 2 3 2 2 2 3 1 1 2 1 1 0 2 1 2 2 4 7 2 2 1 2 5 6 3 2 5 6 6 6 5
16 16 17 18 18 18 19 20 20 20 20 19 9 2 4 3 5 5 3 3 4 3 3 1 1 1 1 2 2 5 3 5 4 4 2 3 4 1 3 1 5 4 4 3 2 2 1 1 1 2 1 1 2 1 2 1 3 4 3 3 4 3 0 1 1 2 0 1 1 1 3 3 6 3 1 2 6 6 3 5 6 4 3 4 4 5 4
16 16 16 17 17 18 18 19 19 19 19 18 10 2 4 6 3 4 1 1 4 2 1 2 1 2 3 1 3 4 1 1 2 3 2 2 4 4 3 0 1 1 1 1 0 1 1 0 1 1 1 2 1 2 1 1 1 2 2 2 1 7 2 2 1 3 2 2 3 3 1 3 5 5 9 7 6 5 4 5 4 4 2 1 3 3 3
16 16 16 16 17 17 18 18 19 19 18 17 9 5 3 6 7 5 1 4 1 0 2 2 1 2 2 1 2 2 2 1 3 1 3 1 1 2 2 3 3 0 0 1 2 2 1 1 2 1 2 3 2 2 3 2 1 2 2 5 3 3 3 2 5 5 7 8 6 4 0 2 4 5 4 5 4 3 2 3 3 1 2 1 2 2 2
15 16 15 16 16 17 17 18 18 18 18 15 6 3 4 3 5 6 4 5 2 2 2 5 4 3 3 6 4 3 1 2 1 2 1 2 1 1 0 1 1 1 0 1 0 1 0 1 2 1 2 1 1 2 1 2 2 1 1 2 1 1 1 1 4 4 0 2 2 2 3 3 2 2 2 2 2 1 0 1 1 2 2 3 3 3 4
14 15 15 15 16 16 17 17 17 17 16 15 8 2 2 2 4 4 2 0 2 2 2 3 1 2 3 4 3 2 1 1 0 1 3 4 5 3 3 2 1 2 3 1 2 2 1 1 1 1 2 1 2 1 2 1 1 1 1 2 0 3 1 5 3 3 1 3 6 2 1 1 1 1 3 3 2 3 3 2 3 4 4 4 3 2 4
14 14 14 15 16 16 16 16 16 15 15 12 6 4 5 3 5 1 4 4 3 1 2 1 1 2 4 2 4 3 4 3 0 4 6 3 2 2 5 2 1 3 2 2 1 1 1 2 1 1 2 1 2 0 1 2 2 0 1 2 2 1 3 1 1 3 4 5 2 1 3 1 3 2 2 1 1 2 3 4 4 4 5 5 5 5 3
14 13 13 14 15 16 16 15 15 14 13 9 3 2 3 2 3 6 5 2 1 1 2 0 3 6 4 5 3 4 3 4 2 5 4 5 3 3 4 2 2 1 2 2 3 2 2 1 1 3 2 2 2 2 1 1 1 1 1 2 0 2 3 2 4 5 3 3 6 8 4 2 6 6 4 3 1 2 3 3 4 4 4 3 3 2 1
13 13 13 14 15 16 15 15 14 13 12 7 2 3 1 3 3 2 0 1 3 2 2 1 1 4 3 2 3 3 4 3 2 5 4 4 4 4 5 4 3 3 4 2 3 2 2 2 2 0 0 1 0 2 1 1 2 1 2 2 2 2 5 3 2 2 2 3 6 7 2 2 1 4 5 3 3 3 4 4 4 4 3 2 1 1 1
13 13 14 14 14 15 14 14 13 12 11 6 1 0 1 1 2 1 2 0 3 3 1 1 2 2 1 1 7 5 3 5 6 4 3 3 5 5 6 5 4 3 3 3 2 1 1 1 0 1 1 1 0 1 1 1 1 0 1 1 1 2 1 1 3 4 3 1 5 6 0 2 3 3 5 4 3 3 4 4 3 3 2 2 0 1 3
14 14 15 15 14 14 14 13 12 10 8 2 2 3 2 1 1 2 4 3 2 2 1 0 1 0 2 2 4 3 6 4 5 6 7 5 5 4 2 3 2 2 3 1 0 1 0 0 0 1 1 2 0 1 1 1 1 1 1 1 1 0 1 1 1 3 4 1 3 3 3 4 3 3 3 2 2 3 4 4 3 2 1 2 2 1 0
15 15 16 15 15 13 13 12 10 6 4 2 2 2 2 1 1 2 4 3 1 2 1 0 0 2 1 1 0 4 6 5 4 4 4 3 2 2 1 1 2 1 0 0 0 0 0 1 0 1 0 2 1 0 1 1 0 1 2 2 3 3 3 2 1 0 2 4 5 4 4 4 3 3 3 2 3 3 4 2 3 3 2 1 1 1 1
15 15 16 16 15 13 12 11 7 4 2 3 4 2 2 1 4 7 5 1 1 1 1 1 1 1 1 3 2 1 2 2 2 2 2 2 1 2 2 2 1 2 2 1 0 1 1 0 0 1 1 2 2 1 1 0 1 1 2 2 3 2 1 2 4 4 4 5 8 6 4 2 2 2 0 5 4 3 3 4 3 1 1 0 1 1 2
16 16 15 15 14 13 12 9 3 2 1 1 1 3 3 4 6 4 1 1 2 2 1 2 1 0 0 1 4 2 3 1 3 4 1 3 3 3 1 2 1 2 2 1 1 0 0 0 0 1 2 1 0 1 0 1 3 1 1 1 2 3 3 3 4 3 3 1 2 0 0 1 2 4 1 5 5 5 5 4 2 1 1 1 2 2 2
18 17 15 14 13 12 10 3 5 7 3 2 3 2 3 8 5 3 2 4 3 1 1 1 0 0 1 3 2 1 4 3 2 3 1 2 1 1 1 2 2 0 3 2 0 1 1 0 0 0 1 1 1 0 1 2 3 2 1 1 2 2 3 4 2 3 2 1 1 2 2 3 3 4 5 4 3 1 0 2 2 1 1 2 3 2 2
18 16 15 13 12 6 4 4 3 2 2 1 0 1 4 11 4 2 3 1 1 2 2 1 0 1 0 2 2 1 2 1 1 2 1 2 2 3 1 1 1 1 0 1 1 1 0 1 1 1 1 2 0 0 2 3 3 1 1 3 3 4 4 2 3 3 3 2 3 3 3 6 7 5 6 5 4 4 4 2 2 2 2 2 2 2 1
18 15 14 10 3 2 1 2 4 2 3 2 1 5 13 7 3 3 3 3 2 2 2 0 0 0 1 0 0 0 2 2 1 1 1 2 1 2 1 1 0 1 1 1 0 0 0 1 1 0 1 0 2 3 2 3 2 3 4 5 6 7 5 4 5 5 4 3 3 3 4 4 5 5 6 6 5 4 4 3 3 3 3 3 3 2 2
16 14 7 2 1 2 4 0 1 3 1 4 8 13 10 3 1 1 3 2 2 2 2 2 1 1 1 0 1 3 2 1 3 1 2 2 2 1 2 1 1 2 0 1 1 1 1 1 0 1 1 2 2 4 4 2 3 4 5 5 6 2 3 4 5 8 6 4 4 3 2 3 2 2 4 5 5 3 4 4 4 3 4 4 3 3 4
12 5 3 2 2 2 1 1 1 3 8 10 6 1 3 3 0 1 2 1 2 2 3 1 0 0 0 0 0 1 0 0 1 1 0 0 1 0 0 1 1 1 1 1 1 1 1 2 1 0 2 3 4 5 5 4 5 4 3 3 6 5 4 5 7 6 4 3 2 3 3 3 4 4 5 6 5 5 4 3 2 3 3 4 4 4 5
5 3 4 3 2 0 1 1 4 10 5 2 1 0 0 1 1 1 1 1 1 1 1 0 0 1 1 1 2 0 2 1 0 1 2 1 0 1 1 1 0 0 1 1 0 0 1 0 0 1 2 2 2 1 0 2 2 3 4 3 4 6 5 4 5 5 4 2 1 1 3 3 5 5 6 5 3 2 2 3 3 3 2 4 4 4 4
5 7 3 2 1 1 3 4 7 4 1 0 2 1 0 1 1 1 1 1 1 0 0 1 0 1 2 2 1 1 1 2 1 1 0 0 1 1 0 0 0 0 0 0 1 3 0 1 0 0 2 1 1 1 3 2 2 1 3 3 4 5 5 5 5 0 1 2 1 1 2 3 2 3 3 4 3 2 3 4 3 2 3 3 3 4 5
4 2 2 1 2 3 5 7 4 1 1 1 1 2 1 1 1 0 0 1 0 0 0 1 0 0 1 1 2 1 0 2 2 1 0 1 0 1 1 0 0 0 0 1 0 1 1 1 0 1 2 1 3 2 3 3 1 1 2 2 3 4 5 3 2 3 3 2 1 1 2 2 3 3 2 2 3 2 2 1 1 2 2 3 4 5 4
2 2 1 1 3 4 4 1 2 1 1 0 2 1 1 1 1 1 0 1 1 1 2 0 1 2 2 1 1 2 0 0 1 0 0 0 1 0 0 1 1 1 1 0 1 0 1 0 1 2 3 4 5 3 2 3 2 2 3 3 4 5 5 4 3 3 3 3 2 2 1 3 3 2 3 3 3 3 2 2 2 3 3 3 3 3 3
3 2 2 1 1 1 0 1 1 2 1 1 2 1 2 2 1 1 1 0 0 0 2 2 2 2 1 0 1 2 0 1 1 0 0 1 0 1 1 1 1 0 0 1 0 1 0 1 1 3 2 5 3 3 4 3 2 2 1 2 3 3 4 5 4 4 4 3 3 3 3 3 3 2 2 2 2 2 2 3 3 2 2 3 3 3 2
2 1 1 1 0 1 0 1 1 1 2 1 2 1 1 2 0 1 0 0 0 0 1 2 3 3 1 0 0 1 0 1 1 1 1 0 0 0 1 0 1 1 1 0 1 1 1 1 3 2 4 4 4 2 3 3 2 2 2 2 2 3 3 3 3 3 3 2 1 1 2 2 2 1 2 2 3 4 3 2 2 2 2 2 3 3 1
1 2 2 1 1 1 1 1 2 2 1 1 1 1 2 1 1 1 0 0 2 3 1 0 1 1 2 1 0 0 0 0 0 0 0 0 0 0 0 1 0 1 1 2 1 1 0 2 1 2 4 4 5 3 2 2 2 2 2 3 4 4 5 5 5 3 4 4 4 3 3 3 2 2 2 2 3 2 2 4 2 1 2 2 2 2 1
3 1 1 3 2 2 2 1 1 1 0 2 1 3 3 2 2 1 1 1 2 3 5 4 2 2 1 0 0 0 0 0 0 0 0 1 0 1 0 0 1 0 0 0 0 2 2 2 1 2 3 4 4 4 3 4 2 2 4 6 6 6 6 5 4 4 4 3 3 3 3 3 4 4 3 3 3 3 3 4 3 3 2 2 2 2 1
1 1 2 1 2 1 0 1 0 1 0 2 1 2 1 1 1 2 1 1 2 2 3 2 2 2 1 1 0 0 0 1 0 0 0 0 1 0 1 0 1 0 1 1 2 3 3 2 2 3 4 4 5 4 3 3 2 4 5 3 1 3 5 5 5 5 4 3 3 3 3 4 4 3 1 2 4 4 4 4 4 3 3 4 2 1 1
1 1 0 1 1 0 1 0 1 1 1 1 1 0 1 0 1 1 1 1 2 1 2 3 1 0 0 0 0 0 0 0 0 1 1 0 1 0 1 0 1 1 2 1 2 2 2 1 1 3 3 3 3 6 5 3 3 4 5 5 4 3 5 6 6 5 5 6 6 5 5 4 4 4 4 4 4 3 3 3 3 2 3 3 3 2 2
1 1 0 1 1 1 0 0 1 1 1 1 1 1 0 1 2 3 2 1 1 3 1 1 0 0 1 0 0 0 1 1 1 1 0 0 1 2 1 1 0 2 3 4 2 1 1 2 2 3 4 4 2 3 4 3 3 4 5 7 6 4 4 6 6 5 5 5 5 5 5 5 4 4 3 2 3 5 3 2 3 3 3 3 3 2 2
2 2 1 1 0 0 0 0 0 1 1 1 0 0 0 0 3 3 1 1 1 1 0 0 0 0 1 0 1 0 1 1 1 0 0 1 1 1 1 1 3 3 1 2 2 3 3 2 0 3 3 3 4 2 4 4 3 4 5 5 4 4 5 6 5 5 5 5 6 6 5 3 4 4 5 6 5 3 2 2 3 3 3 3 3 3 3
0 1 1 1 0 0 3 1 2 1 0 0 0 1 2 2 2 1 1 0 2 2 1 0 0 0 0 1 1 1 1 1 1 2 2 2 1 2 2 3 3 3 2 0 2 2 2 1 1 2 3 3 3 3 3 4 4 5 4 4 5 5 4 5 5 5 5 5 5 5 5 7 7 7 6 3 3 3 4 4 4 4 4 3 3 4 4
1 1 1 0 1 2 1 1 0 1 4 3 2 2 2 2 2 2 0 1 1 1 1 0 0 0 1 3 2 1 1 0 1 1 2 2 3 2 3 4 3 1 3 3 1 1 2 3 3 4 4 5 4 4 4 3 4 4 4 4 4 5 5 5 6 5 5 4 6 7 7 6 5 4 3 3 3 3 5 6 4 3 3 3 4 4 4
Wind_Direction
357 356 354 352 351 349 346 346 346 346 346 358 352 316 10 32 58 274 317 354 203 15 57 285 56 313 290 325 257 299 341 239 318 76 8 101 37 349 203 217 198 247 245 200 217 197 225 190 210 91 92 84 349 304 224 100 45 148 8 52 195 140 63 93 47 196 267 253 193 191 356 226 99 55 43 213 168 174 175 32 160 156 132 177 133 197 101
359 357 355 353 352 350 347 346 345 346 356 337 299 27 84 125 324 325 358 349 129 71 58 342 334 311 313 41 340 14 98 17 6 95 17 47 353 211 290 57 91 314 20 172 224 144 201 175 60 125 119 97 359 354 293 103 74 357 295 41 189 93 258 108 114 115 126 138 139 272 206 84 61 70 28 343 84 96 104 106 8 158 195 241 174 200 158
360 358 356 355 354 352 349 347 344 347 351 6 193 43 173 220 215 280 301 345 37 73 258 293 269 306 331 358 32 354 10 29 316 158 69 24 68 162 259 17 311 5 11 77 53 50 339 359 20 38 30 72 1 20 349 114 119 164 233 295 351 83 49 124 176 170 172 180 191 179 161 123 105 66 30 8 169 131 154 154 166 209 141 176 197 152 80
1 360 358 356 356 355 353 349 346 347 353 5 105 146 3 22 44 331 336 13 23 71 346 71 285 282 352 48 8 357 339 333 355 76 73 11 72 42 315 336 357 42 111 63 20 17 27 315 117 49 65 4 46 4 336 320 119 112 88 83 97 114 105 51 340 230 160 60 136 326 299 170 124 112 69 57 3 354 83 84 153 209 147 191 159 18 136
1 0 359 357 359 358 356 353 348 348 350 5 124 45 62 138 64 335 349 320 41 27 23 21 4 336 264 70 353 2 348 285 309 35 104 30 39 45 38 9 224 360 71 129 90 17 326 14 83 27 341 338 311 306 306 335 18 109 88 34 83 62 40 3 57 41 27 40 43 291 351 87 38 38 15 358 342 319 42 141 157 131 127 217 124 224 153
1 2 360 358 1 2 0 357 352 350 347 352 128 39 349 62 277 203 284 18 344 349 19 2 25 13 15 60 350 13 13 35 28 334 37 168 34 335 24 28 34 284 233 113 88 355 40 36 14 327 27 317 352 20 26 53 358 23 83 8 89 121 113 284 51 49 48 35 358 72 70 41 63 52 16 4 331 321 85 57 78 201 207 212 136 154 119
2 2 1 359 3 5 4 2 356 352 347 346 65 74 355 88 58 188 304 108 360 338 283 333 17 37 9 106 22 24 20 39 19 360 318 24 15 7 94 8 4 9 277 143 104 3 101 34 19 40 345 35 340 44 338 4 20 22 77 40 123 98 53 185 181 102 63 30 24 27 70 109 65 36 27 15 16 31 62 89 45 30 56 57 115 94 83
3 3 2 360 4 7 7 6 1 354 346 327 67 47 6 25 351 11 5 89 64 352 349 5 17 53 359 42 6 18 8 26 6 21 18 20 3 355 71 4 5 22 47 49 80 37 37 59 52 6 359 34 27 70 67 316 328 22 51 94 267 119 197 146 261 82 24 9 20 54 43 50 41 39 37 32 23 43 33 64 55 97 85 76 87 91 80
3 4 3 0 3 8 10 9 6 360 348 48 44 63 27 320 86 313 344 45 357 337 10 9 32 41 2 35 356 13 17 9 340 71 43 57 20 354 335 315 320 37 48 61 76 23 340 289 322 326 350 27 3 10 151 3 304 348 27 29 350 72 146 90 63 107 197 5 48 49 53 55 54 358 12 15 21 13 6 23 347 323 130 139 130 94 93
4 5 4 3 1 6 11 12 11 7 355 86 27 48 314 222 186 52 159 75 349 16 302 2 33 44 356 348 350 2 351 356 356 138 72 72 60 6 322 310 254 31 36 27 356 318 271 264 269 285 280 273 287 251 277 306 306 350 43 299 58 114 130 155 142 144 228 40 79 92 107 59 343 238 82 69 33 95 116 60 25 16 340 134 178 108 97
5 4 4 3 1 3 9 13 14 16 14 41 33 35 2 19 345 345 41 79 360 12 344 29 46 34 318 353 307 333 344 0 15 57 339 349 17 14 349 18 30 85 58 333 313 281 264 260 279 228 168 233 274 320 321 41 50 333 347 47 73 94 143 139 173 155 144 115 120 142 146 195 210 28 279 238 133 177 123 47 9 17 323 24 48 110 116
6 4 3 3 1 0 6 11 14 19 34 43 166 84 18 207 132 156 69 78 35 333 41 55 12 326 8 343 318 326 342 359 342 328 328 317 333 352 11 27 24 41 358 318 296 275 236 177 146 108 77 46 59 63 72 52 36 25 341 75 113 110 81 83 53 111 140 120 139 149 205 212 35 328 16 209 160 110 99 85 50 44 80 105 100 101 103
5 4 4 3 0 358 2 8 12 15 19 49 28 39 345 157 122 80 86 96 47 356 0 32 346 332 331 346 13 357 333 319 280 292 245 336 336 15 30 17 3 300 326 318 325 332 131 347 25 77 345 107 112 77 55 50 31 12 26 24 94 125 110 146 63 72 76 118 167 174 213 14 310 46 79 68 93 97 95 69 46 30 19 53 103 107 113
5 5 5 3 359 358 359 6 9 11 15 18 65 39 352 321 18 51 78 95 43 3 251 260 346 358 1 5 353 321 318 7 340 9 15 13 344 357 337 11 326 297 307 297 337 31 123 52 91 132 126 88 106 91 66 75 41 34 14 14 340 124 82 109 99 306 162 133 152 334 332 267 132 173 138 22 59 53 8 100 44 14 355 9 118 126 129
9 8 7 4 0 358 358 4 7 9 10 17 145 61 26 27 52 110 175 79 109 117 30 34 324 322 329 345 358 355 27 349 3 349 306 266 342 345 304 326 324 323 306 277 11 44 69 103 63 97 70 172 200 152 68 69 47 46 33 13 40 360 166 195 135 193 123 138 104 352 35 244 192 116 85 267 341 351 260 96 103 53 28 355 338 116 121
11 11 9 5 1 359 359 2 5 8 9 7 96 27 61 19 119 86 89 126 129 43 1 344 265 273 326 344 349 36 359 342 346 300 339 12 333 337 326 331 325 325 13 61 49 49 21 49 151 112 134 317 357 10 102 9 69 133 67 31 55 48 45 84 186 127 124 154 169 192 191 231 40 48 331 346 331 229 186 200 126 77 3 30 108 99 78
12 10 9 6 2 1 360 2 4 6 8 10 360 11 33 16 3 76 81 47 63 91 263 312 128 159 312 1 18 38 1 7 350 2 358 354 337 307 308 338 294 14 17 79 11 44 40 60 62 84 93 338 2 34 354 33 5 344 353 14 34 49 14 336 99 141 168 152 184 212 193 86 70 322 312 340 11 160 189 191 178 115 7 44 61 71 56
10 8 7 5 3 1 360 2 5 5 5 8 34 24 28 355 43 196 55 79 103 66 7 340 356 23 35 349 0 323 275 330 20 181 254 306 312 358 335 346 349 17 7 69 351 73 59 41 53 50 65 37 290 296 100 14 46 358 341 345 7 1 27 19 119 134 97 142 88 42 187 237 277 301 313 343 187 211 190 216 105 139 98 81 68 65 49
7 6 4 4 1 0 360 2 5 6 5 5 3 55 43 14 358 53 110 83 68 85 315 279 226 84 172 153 99 170 49 40 289 24 335 351 33 341 281 281 348 351 6 55 46 53 57 68 111 10 16 13 22 56 339 35 354 330 301 14 49 54 44 113 124 48 96 55 120 89 33 12 335 308 304 291 166 180 209 72 292 110 108 77 63 72 53
4 3 4 3 1 360 1 2 5 6 4 7 17 82 277 346 19 17 46 91 66 79 325 356 355 43 278 55 33 28 4 50 26 51 24 354 333 341 190 25 61 355 357 8 65 346 48 49 19 318 45 46 52 19 76 69 36 13 18 335 44 5 21 42 56 114 123 121 95 156 200 97 353 318 289 16 254 50 100 127 98 113 94 94 78 71 71
3 2 0 1 1 0 1 3 5 6 5 4 14 56 8 356 25 22 34 127 101 82 29 320 200 271 146 126 183 147 111 38 358 12 13 286 307 278 67 287 327 357 14 6 36 28 21 70 48 55 34 348 9 234 111 135 68 65 9 46 61 347 153 94 85 351 296 126 154 79 21 337 341 296 79 50 67 112 120 111 111 106 101 87 91 69 69
360 0 0 359 0 1 1 4 5 7 6 4 10 39 52 341 14 9 342 51 87 100 103 306 301 261 256 280 190 169 93 210 270 241 324 25 3 33 120 56 352 4 24 236 88 112 64 120 216 59 63 53 44 53 309 88 97 3 13 305 97 357 48 338 103 21 14 39 101 145 308 354 12 59 90 91 91 94 86 79 92 108 79 78 78 76 68
355 354 357 357 357 357 0 2 5 7 6 6 13 59 40 325 341 348 240 57 27 63 339 5 341 283 295 242 188 221 302 325 133 62 165 109 56 39 42 20 41 317 120 286 19 73 43 33 63 54 99 32 39 100 70 47 95 3 65 7 86 90 66 46 77 82 97 60 62 97 140 356 40 36 32 82 84 58 77 97 99 77 82 79 96 100 91
350 349 350 353 353 354 357 360 5 7 6 7 33 15 359 355 331 342 21 64 85 74 353 10 60 356 307 318 329 359 66 88 322 297 215 179 77 36 189 247 232 220 72 18 284 314 126 59 66 286 78 26 263 41 95 81 48 48 78 109 63 43 320 62 103 150 205 102 169 145 126 149 142 85 73 52 57 47 61 103 96 106 99 87 63 70 76
348 346 346 348 349 349 352 356 0 5 8 6 6 90 190 20 7 3 43 80 17 86 123 320 342 254 299 291 282 289 48 306 287 101 88 68 80 82 60 17 199 8 7 60 169 110 43 94 127 89 84 7 298 81 327 94 117 309 94 58 213 88 226 86 103 79 61 114 156 166 60 262 283 218 169 158 152 102 70 65 72 90 72 66 62 86 78
345 343 344 343 343 345 348 352 355 1 6 13 29 35 46 16 315 239 79 78 105 113 99 16 292 324 307 334 39 322 311 354 141 64 50 63 71 74 137 172 111 30 93 77 215 87 101 72 67 47 93 87 287 102 77 11 64 334 11 75 3 352 264 104 199 105 91 81 91 119 150 185 193 200 249 345 100 105 79 60 69 68 71 65 55 48 62
346 344 343 343 342 343 345 347 352 354 2 16 32 51 68 80 339 24 51 324 178 357 31 111 297 309 2 354 290 328 13 341 15 69 60 34 59 71 81 80 90 47 69 71 43 114 70 99 50 58 20 51 356 55 332 157 35 61 86 78 236 200 103 124 130 113 146 174 169 169 164 186 194 212 200 158 119 104 103 98 96 92 100 94 101 91 76
348 344 344 343 342 341 341 343 346 349 352 17 67 69 351 66 6 355 105 80 9 157 152 242 290 318 304 231 330 340 337 353 29 65 52 34 37 56 64 62 77 26 14 8 41 32 6 50 66 219 305 240 227 67 14 133 204 127 66 57 338 80 140 168 130 155 137 186 170 180 64 64 51 168 153 135 134 153 155 152 136 136 134 142 48 12 223
345 343 340 338 337 336 335 336 340 344 346 358 121 43 16 52 309 334 30 197 108 92 91 253 261 338 64 307 325 348 351 37 39 50 61 46 48 49 61 42 62 121 98 78 107 112 46 46 276 36 29 41 317 96 286 35 23 117 73 73 131 360 195 1 76 122 35 12 158 167 182 32 92 107 126 138 157 155 123 118 116 124 133 167 249 303 316
341 338 336 334 334 333 332 332 338 342 348 8 71 45 42 299 293 3 24 17 44 118 79 101 94 164 308 320 308 320 331 3 31 42 44 42 48 50 33 83 74 40 61 69 27 51 21 41 47 248 295 277 82 81 68 158 173 82 345 271 228 202 218 239 279 24 91 63 134 146 79 94 58 89 86 97 134 150 137 144 146 156 201 208 271 318 335
337 333 331 329 329 329 327 330 335 354 17 72 78 52 41 32 306 160 354 8 304 98 119 110 182 314 354 91 200 335 351 332 6 31 38 43 53 44 22 124 75 292 87 68 49 83 216 66 47 66 88 43 81 122 131 157 47 226 184 130 122 88 92 98 182 63 116 102 96 103 97 95 109 118 104 111 138 135 121 157 178 215 244 215 261 313 319
334 329 325 324 324 322 321 324 331 51 17 58 76 137 145 272 291 313 324 332 248 36 55 48 359 19 329 312 313 303 315 7 1 3 47 347 50 4 25 19 74 18 33 102 133 162 60 85 293 356 331 17 61 89 131 113 168 255 229 179 152 147 120 113 89 82 101 127 128 118 117 132 201 235 204 162 154 154 167 169 198 220 6 262 91 233 275
330 325 322 320 319 317 316 317 319 135 38 183 59 93 168 271 286 296 22 255 57 78 129 81 98 206 278 23 319 352 351 310 29 4 76 6 11 343 52 9 54 74 14 111 28 46 186 158 336 105 64 339 81 132 203 202 225 207 271 37 121 149 127 88 92 88 117 61 350 3 70 166 214 202 157 152 167 175 178 184 157 112 183 211 247 262 261
327 324 321 317 314 315 319 346 106 130 76 73 106 58 353 347 352 355 9 77 91 135 68 99 98 65 285 295 114 23 353 20 4 345 15 47 307 271 348 357 11 125 12 12 79 143 112 222 206 38 238 47 22 133 252 251 247 263 299 238 143 121 121 110 102 120 93 76 50 42 75 104 79 97 122 147 179 214 339 76 122 168 213 251 260 273 281
324 323 320 314 313 327 58 100 80 45 114 89 227 220 310 343 355 6 21 110 82 353 27 35 80 91 9 15 21 296 348 315 340 21 352 2 31 13 345 349 337 52 61 47 52 27 47 47 85 180 144 333 306 268 245 261 257 156 156 155 159 134 105 155 191 158 132 110 118 111 125 138 132 143 159 173 196 200 199 186 189 231 270 277 290 290 273
325 324 319 318 333 115 96 53 44 36 35 355 292 331 329 335 43 40 52 58 31 148 96 299 19 111 134 117 38 350 299 82 31 283 218 289 333 68 35 77 20 91 342 10 153 328 185 39 285 229 41 222 216 209 234 207 207 201 197 191 187 178 174 160 118 120 107 101 105 121 151 173 168 172 178 191 198 196 203 211 204 226 264 282 288 295 277
331 325 326 51 60 55 41 62 326 59 91 265 289 304 310 331 269 88 6 44 22 46 107 161 75 179 181 344 258 270 332 23 349 329 354 1 335 320 360 39 25 332 316 14 12 40 58 41 108 106 201 202 247 232 245 206 209 196 207 209 191 182 101 100 124 127 118 115 122 138 163 176 189 191 198 202 206 180 186 217 228 249 279 291 296 291 306
338 2 59 25 45 52 22 356 360 318 305 296 309 249 15 29 79 344 2 34 313 27 7 36 106 81 323 290 38 344 305 100 14 347 334 265 282 36 359 42 346 308 344 306 311 8 360 41 25 310 269 258 279 272 251 226 227 228 227 185 174 179 138 125 140 136 137 161 198 188 187 204 227 217 215 217 203 199 209 223 226 238 259 267 272 280 287
28 29 49 35 82 115 184 221 328 325 305 258 360 93 313 11 59 18 352 302 342 41 309 351 46 193 154 223 287 280 31 11 359 40 12 67 5 354 9 4 18 97 19 347 99 335 266 68 25 350 263 294 315 340 309 251 250 244 236 216 178 167 154 145 165 159 178 234 286 226 225 248 250 241 212 227 214 205 198 205 223 232 239 259 269 271 274
23 32 23 7 61 281 289 278 325 329 94 81 350 93 110 321 84 17 306 41 5 345 316 25 59 213 235 291 300 10 64 319 331 338 334 27 137 338 301 165 328 359 324 319 309 354 289 285 341 352 289 269 256 341 338 328 314 207 199 177 163 163 168 160 183 224 118 114 131 217 216 240 237 254 215 206 203 197 197 214 230 244 246 264 280 280 280
31 63 31 33 273 310 305 317 322 65 55 52 17 13 58 33 34 336 34 72 117 289 236 338 320 170 102 12 170 268 88 119 105 68 181 352 10 117 59 23 344 288 316 248 308 64 75 89 47 242 271 252 281 352 337 309 255 160 171 145 150 150 161 165 146 150 156 159 182 206 212 208 207 212 203 181 182 205 222 221 220 244 265 276 290 295 306
251 236 187 225 292 295 308 309 61 41 32 76 111 355 296 240 271 21 49 77 25 296 41 334 360 360 353 199 267 230 216 31 118 106 94 97 25 358 175 340 360 71 274 251 44 71 74 261 301 282 250 260 266 301 299 291 273 201 172 169 162 158 159 159 147 168 197 198 192 208 182 188 194 192 179 177 188 193 200 209 248 250 260 288 287 286 287
322 245 159 286 309 334 345 57 332 88 80 2 36 43 351 49 360 63 327 292 283 236 331 205 249 235 222 201 250 200 288 207 289 358 42 330 35 53 72 40 48 251 239 22 308 57 34 226 234 255 274 292 316 314 295 265 272 276 196 171 173 165 148 153 171 168 178 194 203 193 179 185 196 187 181 191 176 169 202 218 241 275 294 302 303 290 273
97 95 118 325 49 301 49 77 292 58 34 56 97 113 308 51 344 21 46 328 343 266 31 346 344 5 351 38 351 41 356 167 67 79 72 34 56 328 47 258 241 356 25 358 40 246 271 250 238 284 312 308 295 271 284 285 231 211 203 170 154 136 133 130 127 141 153 186 200 160 163 165 158 153 174 197 204 230 254 256 211 231 260 277 282 287 287
140 4 29 26 33 279 66 307 330 104 99 286 128 144 143 121 216 197 47 274 213 317 358 208 283 250 288 317 40 108 48 236 31 68 277 304 32 72 151 275 273 23 3 281 328 305 321 269 250 241 266 283 294 315 326 285 253 217 188 154 172 162 162 172 182 176 181 184 176 163 180 176 180 194 194 212 218 232 242 272 275 257 274 280 286 282 338
63 110 50 72 4 337 92 155 328 65 296 162 168 186 171 193 162 200 236 124 276 310 323 329 313 252 264 287 257 313 355 83 290 184 134 91 120 251 193 117 112 287 334 74 359 252 239 269 309 308 293 278 286 304 306 285 248 216 204 202 192 179 184 185 186 191 193 177 170 183 180 177 198 197 216 221 225 231 233 245 246 252 274 276 273 298 348
66 19 82 113 95 278 93 104 276 188 185 194 202 167 61 44 188 266 276 177 271 292 289 270 254 271 338 357 257 283 72 37 234 210 140 211 209 189 66 265 272 181 174 248 251 251 264 252 243 253 272 291 301 296 294 293 250 215 226 256 101 174 174 189 193 202 190 171 175 190 190 198 207 206 204 239 243 231 237 240 243 226 228 254 270 221 231
85 249 82 94 225 208 77 17 301 293 278 330 24 218 345 276 318 34 117 207 284 307 323 332 315 97 202 189 251 274 310 325 272 258 215 231 59 22 15 33 250 244 206 208 238 210 236 259 254 273 274 264 266 296 303 292 249 230 231 226 218 193 189 194 204 207 181 187 192 197 197 199 201 204 209 230 255 258 235 238 234 223 229 233 226 208 200
125 105 110 189 180 148 193 334 349 98 71 9 331 344 20 308 297 284 277 161 280 318 295 230 193 206 297 42 52 20 256 125 250 249 108 48 199 225 173 231 200 277 235 198 236 198 217 230 227 245 269 281 256 236 265 269 269 246 225 226 225 210 195 203 213 203 186 195 201 200 204 198 191 200 210 214 248 261 245 224 226 224 221 229 230 215 198
48 352 22 70 54 296 113 184 67 326 347 11 167 175 108 230 274 280 184 219 273 296 153 134 134 94 312 319 275 274 247 202 219 51 81 227 206 155 95 259 213 210 255 179 221 243 242 244 255 268 253 251 270 255 263 277 251 252 246 235 216 204 212 214 219 208 203 202 203 209 201 181 196 199 202 216 224 252 274 251 242 244 233 222 227 229 233
27 119 239 213 207 204 147 142 170 171 280 244 203 209 177 210 229 288 138 110 41 26 30 330 18 70 262 39 63 246 238 113 178 196 195 224 153 159 199 226 240 209 238 312 278 297 305 301 237 265 290 282 278 286 264 271 272 267 256 238 221 216 211 210 218 217 217 215 207 198 202 207 207 204 205 193 201 226 255 263 249 248 248 226 212 224 229
60 21 276 295 231 195 182 69 321 245 249 263 254 252 162 254 228 240 34 99 78 13 283 158 158 113 187 230 230 261 24 338 244 45 281 241 174 184 205 209 257 235 224 245 267 261 253 258 240 240 254 276 283 279 277 275 273 271 264 249 228 215 215 209 210 211 210 204 204 208 215 216 209 202 176 188 205 218 239 253 252 227 227 230 220 210 222